[[{"header":{"parameterUnit":"m.s-1","parameterCategory":2,"la1":30.2991,"la2":30.254,"lo1":-89.0895,"lo2":-89.0444,"dy":0.0017,"dx":0.0017,"nx":28,"ny":28,"refTime":"2024-06-05T03:00:00:Z","depth":"0","parameterNumber":2,"parameterNumberName":"U-component_of_CURRENTS"},"data":[0,0,0,0,0,0,0,0,0,0,0,0,0,0,0,0,0,0,0,0,0,0,0,0,0,0,0,0,0,0,0,0,0,0,0,0,0,0,0,0,0,0,0,0,0,0,0,0,0,0,0,0,0,0,0,0,0,0,-0.2584,-0.2585,0,-0.2596,-0.2596,-0.2596,-0.257,-0.257,-0.2569,-0.2569,-0.2519,-0.2518,-0.2517,0,0,0,0,0,0,0,0,0,0,0,0,0,-0.2544,-0.2545,-0.2584,-0.2585,-0.2585,-0.2596,-0.2596,-0.2596,-0.257,-0.257,-0.2569,-0.2569,-0.2519,-0.2518,-0.2517,0,0,0,0,0,0,0,0,0,0,0,0,0,-0.2556,-0.2545,-0.2584,-0.2576,-0.2576,-0.2596,-0.2596,-0.2596,-0.2571,-0.257,-0.2569,-0.2568,-0.2519,-0.2518,-0.2517,-0.2525,0,0,-0.2513,-0.2513,0,0,0,0,0,0,0,0,-0.2556,-0.2557,-0.2577,-0.2577,-0.2576,-0.2584,-0.2564,-0.257,-0.2571,-0.2569,-0.2569,-0.2568,-0.2538,-0.2535,-0.2535,-0.2523,-0.2521,-0.2513,-0.2512,-0.2512,-0.2511,0,0,0,0,0,0,0,-0.2555,-0.2557,-0.2586,-0.2577,-0.2577,-0.2574,-0.2574,-0.2565,-0.2554,-0.2569,-0.2568,-0.2575,-0.2536,-0.2536,-0.2534,-0.252,-0.2513,-0.2512,-0.2511,-0.2511,-0.2527,-0.2528,0,0,0,0,0,0,-0.2561,-0.2556,-0.2585,-0.2586,-0.2568,-0.2576,-0.2576,-0.258,-0.2555,-0.2552,-0.2576,-0.2574,-0.2539,-0.2535,-0.2532,-0.255,-0.2512,-0.2511,-0.251,-0.2526,-0.2527,-0.2528,0,0,0,0,0,0,-0.256,-0.2563,-0.2585,-0.2574,-0.2577,-0.2578,-0.2582,-0.258,-0.2575,-0.2562,-0.2556,-0.2571,-0.2538,-0.2533,-0.2528,-0.2547,-0.251,-0.2509,-0.2524,-0.2526,-0.2528,-0.258,0,0,0,0,0,0,-0.2559,-0.2563,-0.256,-0.2575,-0.2578,-0.2601,-0.2583,-0.2581,-0.2582,-0.258,-0.2556,-0.2551,-0.2537,-0.253,-0.2527,-0.2545,-0.2508,-0.2523,-0.2525,-0.2527,-0.2577,-0.2583,-0.2589,0,0,0,0,0,-0.2557,-0.2556,-0.2559,-0.2563,-0.2576,-0.2602,-0.2603,-0.2599,-0.2583,-0.2588,-0.2573,-0.2552,-0.2542,-0.253,-0.2526,-0.2544,-0.2522,-0.2524,-0.2527,-0.2574,-0.2582,-0.2589,0,0,0,0,0,0,-0.2529,-0.2554,-0.2558,-0.2562,-0.2585,-0.2599,-0.26,-0.2599,-0.2592,-0.2582,-0.2562,-0.2557,-0.2563,-0.2547,-0.2534,-0.2557,-0.2531,-0.2533,-0.2568,-0.2575,-0.2581,-0.2579,-0.2507,0,0,0,0,0,-0.2527,-0.2531,-0.2562,-0.2563,-0.2577,-0.2589,-0.2594,-0.2597,-0.2598,-0.2593,-0.2582,-0.2571,-0.2573,-0.2567,-0.2565,-0.257,-0.2536,-0.2582,-0.2588,-0.2593,-0.259,-0.2576,-0.258,-0.2537,-0.2537,-0.2537,0,0,-0.2514,-0.2529,-0.2529,-0.2558,-0.2571,-0.2602,-0.2589,-0.2603,-0.2623,-0.2589,-0.2598,-0.259,-0.2581,-0.2594,-0.2595,-0.258,-0.2583,-0.2597,-0.2601,-0.2595,-0.2579,-0.2583,-0.2586,-0.2539,-0.2539,-0.2538,0,0,-0.2508,-0.251,-0.2524,-0.2551,-0.2582,-0.2597,-0.2604,-0.2627,-0.2629,-0.2645,-0.2631,-0.2631,-0.2629,-0.263,-0.263,-0.2666,-0.2619,-0.267,-0.2694,-0.268,-0.2683,-0.2685,-0.2624,-0.262,-0.2669,-0.267,-0.267,0,-0.2493,-0.2513,-0.2532,-0.2564,-0.2582,-0.26,-0.2627,-0.2646,-0.2661,-0.2664,-0.2653,-0.2658,-0.2649,-0.2667,-0.2685,-0.2679,-0.2647,-0.2666,-0.2686,-0.2688,-0.269,-0.2626,-0.2622,-0.2672,-0.2672,-0.2672,-0.2671,0,-0.2512,-0.253,-0.2541,-0.2588,-0.2615,-0.2635,-0.2677,-0.2694,-0.2697,-0.2709,-0.2722,-0.2714,-0.2712,-0.2721,-0.2713,-0.2729,-0.2692,-0.2697,-0.2665,-0.2697,-0.2628,-0.2622,-0.2676,-0.2675,-0.2675,-0.2674,0,0,-0.246,-0.254,-0.2539,-0.2565,-0.2624,-0.2644,-0.2691,-0.2729,-0.2743,-0.276,-0.2767,-0.2787,-0.2772,-0.2771,-0.2763,-0.2757,-0.2736,-0.2735,-0.2732,-0.2667,-0.2668,-0.2563,-0.2546,-0.2747,-0.2747,-0.2747,-0.2606,0,-0.2463,-0.2515,-0.256,-0.2604,-0.263,-0.2676,-0.2717,-0.2754,-0.2772,-0.2787,-0.279,-0.2794,-0.2797,-0.2788,-0.2788,-0.2753,-0.2727,-0.2771,-0.2652,-0.2648,-0.2547,-0.2539,-0.2422,-0.2282,-0.26,-0.2599,-0.2598,0,-0.2456,-0.2491,-0.2534,-0.2603,-0.2621,-0.2652,-0.2699,-0.2741,-0.2783,-0.2796,-0.281,-0.281,-0.2808,-0.2802,-0.2751,-0.2778,-0.2725,-0.2693,-0.2687,-0.2567,-0.2533,-0.2307,-0.2258,-0.2255,-0.2589,-0.259,-0.259,0,-0.2381,-0.2465,-0.249,-0.2515,-0.2604,-0.2624,-0.2666,-0.2723,-0.2748,-0.2788,-0.2792,-0.2805,-0.2782,-0.2756,-0.2693,-0.2722,-0.261,-0.2638,-0.2486,-0.2476,-0.234,-0.2318,-0.2267,-0.2588,-0.2589,-0.2589,-0.259,0,-0.2342,-0.2357,-0.2454,-0.246,-0.2487,-0.2571,-0.2593,-0.2646,-0.2702,-0.2711,-0.2775,-0.2763,-0.2772,-0.2717,-0.2676,-0.254,-0.2588,-0.2471,-0.2436,-0.2351,-0.2334,-0.2295,-0.2336,-0.2584,-0.2585,-0.2586,-0.2587,0,-0.2234,-0.2305,-0.2329,-0.2418,-0.2444,-0.2452,-0.2536,-0.2553,-0.2629,-0.2639,-0.2649,-0.2703,-0.2632,-0.2603,-0.2527,-0.2481,-0.2336,-0.2325,-0.2198,-0.2152,-0.2022,-0.2069,-0.1973,-0.1916,-0.2138,-0.2135,-0.2132,0,-0.218,-0.2184,-0.2262,-0.227,-0.23,-0.234,-0.2366,-0.248,-0.2506,-0.2584,-0.2572,-0.2544,-0.248,-0.2331,-0.2241,-0.211,-0.2164,-0.1952,-0.2,-0.1978,-0.2007,-0.2065,-0.203,-0.1826,-0.1821,-0.1817,-0.1814,0,-0.206,-0.2086,-0.2107,-0.2121,-0.2145,-0.2188,-0.224,-0.226,-0.2382,-0.2393,-0.238,-0.2338,-0.2215,-0.2044,-0.1908,-0.1834,-0.1914,-0.1861,-0.1883,-0.1787,-0.1802,-0.174,-0.1937,-0.1776,-0.178,-0.1783,-0.1785,-0.1786,-0.1952,-0.1929,-0.1952,-0.1951,-0.1986,-0.2008,-0.1971,-0.2052,-0.2063,-0.203,-0.2133,-0.1987,-0.1919,-0.1705,-0.1632,-0.1506,-0.1602,-0.1479,-0.154,-0.1602,-0.155,-0.164,-0.1426,-0.1427,-0.1429,-0.143,-0.1431,0,-0.1797,-0.1786,-0.1782,-0.1776,-0.174,-0.1819,-0.1853,-0.1783,-0.1723,-0.1706,-0.1656,-0.1557,-0.1443,-0.1398,-0.1312,-0.123,-0.1234,-0.1217,-0.1296,-0.1276,-0.1368,-0.1358,-0.1065,-0.1066,-0.1066,-0.1066,-0.1066,-0.1066,-0.1714,-0.1643,-0.164,-0.1524,-0.1514,-0.1393,-0.1367,-0.1299,-0.1236,-0.1068,-0.097,-0.093,-0.1066,-0.1278,-0.1227,-0.1159,-0.1171,-0.1104,-0.117,-0.1275,-0.1306,-0.1336,-0.1336,-0.1044,-0.1044,-0.1014,-0.1014,-0.1014]},{"header":{"parameterUnit":"m.s-1","parameterCategory":2,"la1":30.2991,"la2":30.254,"lo1":-89.0895,"lo2":-89.0444,"dy":0.0017,"dx":0.0017,"nx":28,"ny":28,"refTime":"2024-06-05T03:00:00:Z","depth":"0","parameterNumber":3,"parameterNumberName":"V-component_of_CURRENTS"},"data":[0,0,0,0,0,0,0,0,0,0,0,0,0,0,0,0,0,0,0,0,0,0,0,0,0,0,0,0,0,0,0,0,0,0,0,0,0,0,0,0,0,0,0,0,0,0,0,0,0,0,0,0,0,0,0,0,0,0,-0.0213,-0.0212,0,-0.0129,-0.0128,-0.0127,-0.0058,-0.0058,-0.0057,-0.0056,0.0064,0.0067,0.0069,0,0,0,0,0,0,0,0,0,0,0,0,0,-0.0272,-0.0271,-0.0213,-0.0212,-0.0211,-0.0129,-0.0128,-0.0126,-0.0058,-0.0058,-0.0057,-0.0056,0.0063,0.0066,0.007,0,0,0,0,0,0,0,0,0,0,0,0,0,-0.0222,-0.0271,-0.0213,-0.0168,-0.0164,-0.0129,-0.0127,-0.0126,-0.0058,-0.0058,-0.0057,-0.0056,0.0062,0.0066,0.007,0.0077,0,0,0.0082,0.0084,0,0,0,0,0,0,0,0,-0.0225,-0.0219,-0.0176,-0.0171,-0.0166,-0.0104,-0.0104,-0.0057,-0.0059,-0.0097,-0.0056,-0.0055,0.001,0.0018,0.0033,0.0083,0.0088,0.0083,0.0085,0.0087,0.0088,0,0,0,0,0,0,0,-0.0228,-0.0222,-0.0179,-0.0175,-0.0169,-0.0137,-0.0129,-0.0094,-0.0048,-0.0094,-0.0089,-0.0082,0.0013,0.0029,0.0037,0.009,0.0083,0.0086,0.0089,0.009,0.0171,0.0171,0,0,0,0,0,0,-0.0244,-0.0226,-0.0181,-0.0176,-0.0195,-0.0137,-0.0128,-0.0124,-0.0049,-0.0037,-0.0082,-0.0079,0.0022,0.0032,0.0041,0.0063,0.0087,0.0091,0.0093,0.0171,0.0171,0.0171,0,0,0,0,0,0,-0.0246,-0.0241,-0.0185,-0.02,-0.0191,-0.0138,-0.0133,-0.0123,-0.0106,-0.0041,-0.0028,-0.0076,0.0023,0.0036,0.007,0.0068,0.0092,0.0096,0.0172,0.0171,0.0171,0.0101,0,0,0,0,0,0,-0.0248,-0.0243,-0.0249,-0.0201,-0.019,-0.0176,-0.0133,-0.0122,-0.0104,-0.0098,-0.0032,-0.0019,0.0025,0.0064,0.0074,0.0074,0.0099,0.0172,0.0171,0.0171,0.0104,0.0099,0.0094,0,0,0,0,0,-0.0251,-0.0269,-0.025,-0.0244,-0.0199,-0.0177,-0.0169,-0.0127,-0.0105,-0.0107,-0.0057,-0.0022,0.0069,0.0067,0.0079,0.008,0.0172,0.0172,0.0171,0.0106,0.01,0.0094,0,0,0,0,0,0,-0.03,-0.0262,-0.024,-0.0246,-0.0218,-0.0167,-0.0168,-0.0136,-0.0098,-0.0092,-0.0026,-0.0011,0.0018,0.0056,0.0052,0.0102,0.0127,0.0128,0.0073,0.0068,0.0063,0.0054,0.0102,0,0,0,0,0,-0.0314,-0.0315,-0.0272,-0.0278,-0.0268,-0.0219,-0.0205,-0.0176,-0.0136,-0.0118,-0.0071,-0.0019,0.0024,0.005,0.0088,0.0114,0.017,0.0124,0.0119,0.0114,0.0115,0.0197,0.0199,0.0169,0.0169,0.0169,0,0,-0.0334,-0.0314,-0.0314,-0.0288,-0.0263,-0.0258,-0.0209,-0.0197,-0.0185,-0.0112,-0.0087,-0.004,0.0025,0.0055,0.0072,0.0089,0.0151,0.0114,0.0109,0.0113,0.0196,0.02,0.0202,0.0169,0.0169,0.0169,0,0,-0.0383,-0.0359,-0.0379,-0.0361,-0.0332,-0.0296,-0.0297,-0.0251,-0.0223,-0.0195,-0.0136,-0.0088,-0.0033,0.0024,0.0058,0.0049,0.0116,0.0056,0.0032,0.011,0.0114,0.0117,0.0185,0.0196,0.006,0.006,0.0059,0,-0.0411,-0.0422,-0.0383,-0.0397,-0.0383,-0.0319,-0.033,-0.0296,-0.0242,-0.0214,-0.02,-0.0092,-0.0043,0.0021,0.0017,0.0039,0.009,0.0048,0.0104,0.0109,0.0114,0.0183,0.0196,0.0056,0.0057,0.0057,0.0057,0,-0.0472,-0.0478,-0.049,-0.0478,-0.0459,-0.046,-0.0404,-0.0381,-0.0337,-0.0288,-0.0227,-0.0153,-0.0083,-0.0062,-0.0025,0.0035,0.006,0.0083,0.0118,0.0113,0.0186,0.02,0.0051,0.0052,0.0053,0.0054,0,0,-0.0539,-0.0535,-0.0537,-0.054,-0.0499,-0.0489,-0.0466,-0.0416,-0.0388,-0.0328,-0.0281,-0.0203,-0.0151,-0.0109,-0.0048,0.002,0.0094,0.0058,0.0064,0.0123,0.0263,0.0307,0.0328,0.0127,0.0129,0.0131,0.0298,0,-0.0596,-0.0641,-0.0612,-0.0632,-0.0644,-0.0573,-0.0552,-0.0494,-0.0431,-0.0371,-0.0272,-0.0213,-0.0171,-0.0135,-0.0061,0.0058,0.0129,0.0047,0.0262,0.0268,0.0307,0.0345,0.0399,0.0555,0.0312,0.0315,0.0317,0,-0.0661,-0.0679,-0.0719,-0.0698,-0.0694,-0.069,-0.0625,-0.0598,-0.0492,-0.044,-0.0353,-0.0272,-0.016,-0.013,0.0076,0.002,0.013,0.0222,0.0231,0.0308,0.0339,0.0524,0.0591,0.0733,0.0339,0.0337,0.0336,0,-0.0724,-0.0744,-0.0775,-0.0772,-0.0744,-0.0736,-0.0709,-0.0621,-0.0587,-0.0479,-0.0438,-0.0292,-0.0207,-0.0061,0.0126,0.0104,0.0359,0.0359,0.0504,0.0508,0.0617,0.0627,0.0849,0.0504,0.0503,0.0503,0.0502,0,-0.0789,-0.081,-0.0811,-0.0829,-0.0851,-0.0802,-0.0791,-0.074,-0.0653,-0.0597,-0.0483,-0.0393,-0.0185,-0.0015,0.0132,0.0373,0.0372,0.0516,0.0564,0.0592,0.0598,0.0775,0.0822,0.0509,0.0508,0.0507,0.0506,0,-0.0849,-0.0852,-0.0888,-0.0884,-0.0887,-0.09,-0.0863,-0.0844,-0.0759,-0.0681,-0.065,-0.0445,-0.0209,0.0001,0.0278,0.0397,0.0716,0.0688,0.0702,0.0748,0.0989,0.1027,0.1285,0.1398,0.0872,0.0874,0.0876,0,-0.0882,-0.0912,-0.0943,-0.0969,-0.0972,-0.0982,-0.0984,-0.0911,-0.0878,-0.0697,-0.0659,-0.0414,-0.0201,0.0209,0.0474,0.076,0.0856,0.0946,0.0913,0.1031,0.111,0.1118,0.1194,0.1033,0.1036,0.1038,0.104,0,-0.094,-0.0951,-0.0983,-0.1042,-0.1067,-0.1088,-0.1078,-0.1061,-0.0944,-0.0832,-0.0613,-0.0418,-0.0005,0.0384,0.073,0.0885,0.1064,0.1003,0.1145,0.1275,0.1284,0.1405,0.0878,0.1062,0.106,0.1058,0.1057,0.1056,-0.0973,-0.1012,-0.1053,-0.1103,-0.1142,-0.1165,-0.1156,-0.1076,-0.0976,-0.0713,-0.054,-0.011,0.0303,0.0828,0.0999,0.1345,0.1281,0.1427,0.1471,0.1473,0.1568,0.1075,0.1291,0.1291,0.129,0.1289,0.1289,0,-0.1001,-0.1044,-0.1104,-0.1161,-0.1205,-0.1207,-0.119,-0.1106,-0.093,-0.0586,-0.0274,0.0405,0.0845,0.122,0.1634,0.1801,0.184,0.187,0.1909,0.1972,0.1574,0.1565,0.1828,0.1827,0.1827,0.1827,0.1827,0.1827,-0.1016,-0.1075,-0.1109,-0.1189,-0.1226,-0.1221,-0.1194,-0.1007,-0.0745,-0.0165,0.0364,0.075,0.1218,0.1782,0.2168,0.2204,0.2372,0.2332,0.2427,0.2148,0.2109,0.2072,0.2078,0.2444,0.2444,0.2826,0.2829,0.2832]}],[{"header":{"parameterUnit":"m.s-1","parameterCategory":2,"la1":30.2991,"la2":30.254,"lo1":-89.0895,"lo2":-89.0444,"dy":0.0017,"dx":0.0017,"nx":28,"ny":28,"refTime":"2024-06-05T03:00:00:Z","depth":"2","parameterNumber":2,"parameterNumberName":"U-component_of_CURRENTS"},"data":[0,0,0,0,0,0,0,0,0,0,0,0,0,0,0,0,0,0,0,0,0,0,0,0,0,0,0,0,0,0,0,0,0,0,0,0,0,0,0,0,0,0,0,0,0,0,0,0,0,0,0,0,0,0,0,0,0,0,-0.24,-0.2401,0,-0.2439,-0.244,-0.244,-0.2429,-0.2429,-0.2428,-0.2428,-0.241,-0.241,-0.241,0,0,0,0,0,0,0,0,0,0,0,0,0,-0.2314,-0.2315,-0.24,-0.2401,-0.2402,-0.2439,-0.244,-0.244,-0.2429,-0.2429,-0.2428,-0.2428,-0.241,-0.241,-0.241,0,0,0,0,0,0,0,0,0,0,0,0,0,-0.2349,-0.2316,-0.24,-0.2403,-0.2404,-0.2439,-0.244,-0.244,-0.2429,-0.2429,-0.2428,-0.2427,-0.241,-0.241,-0.241,-0.2425,0,0,-0.241,-0.241,0,0,0,0,0,0,0,0,-0.2347,-0.2352,-0.2402,-0.2403,-0.2404,-0.2431,-0.2403,-0.2433,-0.243,-0.2417,-0.2428,-0.2427,-0.2414,-0.2414,-0.242,-0.2424,-0.2424,-0.241,-0.241,-0.241,-0.241,0,0,0,0,0,0,0,-0.2345,-0.235,-0.2412,-0.2403,-0.2404,-0.2402,-0.2406,-0.2409,-0.2416,-0.2418,-0.2418,-0.2427,-0.2414,-0.242,-0.2419,-0.2423,-0.241,-0.241,-0.241,-0.241,-0.2453,-0.2455,0,0,0,0,0,0,-0.2347,-0.2348,-0.2411,-0.2414,-0.2377,-0.2405,-0.2409,-0.2421,-0.2417,-0.2417,-0.2428,-0.2427,-0.242,-0.2419,-0.2418,-0.2449,-0.241,-0.241,-0.241,-0.2452,-0.2454,-0.2455,0,0,0,0,0,0,-0.2345,-0.2353,-0.241,-0.2384,-0.2391,-0.2407,-0.2421,-0.2422,-0.2428,-0.2426,-0.2424,-0.2432,-0.2419,-0.2418,-0.2428,-0.2448,-0.241,-0.241,-0.2451,-0.2453,-0.2454,-0.2502,0,0,0,0,0,0,-0.2343,-0.2352,-0.2358,-0.2384,-0.2393,-0.2437,-0.2422,-0.2424,-0.2436,-0.2435,-0.2429,-0.2427,-0.2419,-0.2428,-0.2428,-0.2447,-0.241,-0.2449,-0.2452,-0.2454,-0.2499,-0.2505,-0.2511,0,0,0,0,0,-0.234,-0.2352,-0.2358,-0.2365,-0.2402,-0.2439,-0.2443,-0.2449,-0.2437,-0.2448,-0.2444,-0.2427,-0.2441,-0.2429,-0.2428,-0.2448,-0.2448,-0.2451,-0.2454,-0.2497,-0.2504,-0.251,0,0,0,0,0,0,-0.2314,-0.2354,-0.236,-0.2382,-0.2412,-0.2438,-0.2447,-0.2452,-0.2458,-0.2452,-0.2441,-0.2439,-0.2457,-0.2447,-0.2434,-0.2468,-0.2443,-0.2446,-0.2476,-0.2483,-0.2488,-0.2485,-0.241,0,0,0,0,0,-0.2314,-0.2333,-0.2372,-0.2389,-0.2405,-0.2426,-0.2439,-0.2449,-0.2462,-0.2463,-0.2461,-0.246,-0.2469,-0.247,-0.2476,-0.2492,-0.2462,-0.2505,-0.2511,-0.2516,-0.2514,-0.2503,-0.2507,-0.2463,-0.2463,-0.2463,0,0,-0.2306,-0.2332,-0.234,-0.2385,-0.2404,-0.2439,-0.2431,-0.2458,-0.2484,-0.246,-0.2482,-0.2481,-0.2479,-0.2501,-0.2508,-0.2493,-0.2509,-0.2519,-0.2523,-0.2518,-0.2506,-0.251,-0.2513,-0.2465,-0.2465,-0.2465,0,0,-0.2312,-0.2327,-0.2352,-0.2382,-0.2425,-0.2444,-0.2454,-0.2488,-0.2496,-0.2524,-0.2515,-0.2524,-0.2536,-0.2541,-0.2544,-0.2584,-0.2542,-0.2588,-0.2611,-0.2601,-0.2604,-0.2607,-0.2554,-0.2551,-0.2588,-0.2588,-0.2589,0,-0.2301,-0.2338,-0.2363,-0.2403,-0.2424,-0.2449,-0.2481,-0.2506,-0.2537,-0.2543,-0.2536,-0.2557,-0.2556,-0.258,-0.2597,-0.2596,-0.2568,-0.2585,-0.2607,-0.2609,-0.2611,-0.2556,-0.2553,-0.2591,-0.2591,-0.259,-0.259,0,-0.2335,-0.2364,-0.2381,-0.2437,-0.2467,-0.2495,-0.254,-0.2564,-0.2573,-0.259,-0.2613,-0.2615,-0.2621,-0.2631,-0.2627,-0.2646,-0.2613,-0.2617,-0.2587,-0.2618,-0.2558,-0.2554,-0.2595,-0.2594,-0.2593,-0.2592,0,0,-0.2299,-0.2387,-0.2389,-0.2417,-0.2483,-0.2508,-0.2558,-0.26,-0.2619,-0.2647,-0.2659,-0.2688,-0.2678,-0.2681,-0.2678,-0.2674,-0.2659,-0.2653,-0.2651,-0.2594,-0.2602,-0.2504,-0.2489,-0.2668,-0.2668,-0.2668,-0.2548,0,-0.231,-0.2376,-0.2422,-0.2473,-0.2503,-0.2548,-0.2589,-0.2632,-0.2656,-0.2677,-0.2685,-0.2698,-0.2702,-0.2699,-0.2702,-0.2674,-0.2653,-0.2689,-0.2586,-0.2582,-0.2487,-0.2483,-0.231,-0.2182,-0.2543,-0.2542,-0.2541,0,-0.2318,-0.236,-0.2412,-0.2481,-0.2498,-0.2534,-0.2583,-0.2628,-0.2674,-0.2691,-0.271,-0.2715,-0.2721,-0.2715,-0.2676,-0.2699,-0.2653,-0.2625,-0.262,-0.2509,-0.2476,-0.2215,-0.216,-0.2533,-0.2534,-0.2534,-0.2535,0,-0.2255,-0.2344,-0.2377,-0.2403,-0.2493,-0.2514,-0.2556,-0.2616,-0.2642,-0.2689,-0.2696,-0.2716,-0.2701,-0.268,-0.2629,-0.2653,-0.2559,-0.2583,-0.2443,-0.2434,-0.2255,-0.223,-0.2542,-0.2542,-0.2542,-0.2542,-0.2543,0,-0.223,-0.2251,-0.2348,-0.236,-0.2391,-0.2472,-0.2499,-0.2552,-0.2608,-0.2619,-0.2685,-0.2678,-0.2693,-0.2649,-0.2614,-0.2495,-0.2541,-0.2431,-0.24,-0.2264,-0.2243,-0.2532,-0.2533,-0.2538,-0.2539,-0.254,-0.254,0,-0.2139,-0.221,-0.2243,-0.2332,-0.2358,-0.2371,-0.2451,-0.247,-0.2545,-0.2557,-0.2569,-0.2626,-0.2567,-0.2546,-0.2484,-0.2443,-0.2363,-0.2306,-0.2123,-0.2073,-0.2246,-0.2251,-0.2144,-0.214,-0.2136,-0.2133,-0.213,0,-0.2096,-0.2107,-0.2189,-0.22,-0.2233,-0.2275,-0.2302,-0.2408,-0.2431,-0.2507,-0.2495,-0.2478,-0.2417,-0.2294,-0.2215,-0.21,-0.2213,-0.1899,-0.1928,-0.2227,-0.2207,-0.2218,-0.2227,-0.1695,-0.1689,-0.1684,-0.168,0,-0.1995,-0.2024,-0.2051,-0.2074,-0.21,-0.214,-0.2189,-0.2206,-0.2316,-0.2325,-0.2314,-0.2274,-0.2166,-0.198,-0.1863,-0.1791,-0.1914,-0.1796,-0.2138,-0.1837,-0.1797,-0.1781,-0.1806,-0.1637,-0.1641,-0.1644,-0.1646,-0.1648,-0.19,-0.1885,-0.1917,-0.1926,-0.1961,-0.1981,-0.1949,-0.2013,-0.2019,-0.1995,-0.2075,-0.194,-0.1906,-0.1619,-0.152,-0.145,-0.1591,-0.1544,-0.1561,-0.1583,-0.1567,-0.1525,-0.1307,-0.131,-0.1312,-0.1314,-0.1315,0,-0.1762,-0.1763,-0.1767,-0.1771,-0.1744,-0.1818,-0.1845,-0.1782,-0.1718,-0.1727,-0.1671,-0.1469,-0.1329,-0.1297,-0.1114,-0.1089,-0.1103,-0.1055,-0.1086,-0.1127,-0.1165,-0.1132,-0.0754,-0.0752,-0.0751,-0.075,0,0,-0.169,-0.1638,-0.164,-0.1548,-0.1546,-0.1459,-0.1435,-0.1371,-0.1336,-0.1232,-0.1154,-0.1217,-0.1231,-0.0993,-0.0942,-0.0817,-0.0964,-0.0767,-0.1211,-0.1286,-0.1322,-0.1432,-0.1425,0,0,0,0,0]},{"header":{"parameterUnit":"m.s-1","parameterCategory":2,"la1":30.2991,"la2":30.254,"lo1":-89.0895,"lo2":-89.0444,"dy":0.0017,"dx":0.0017,"nx":28,"ny":28,"refTime":"2024-06-05T03:00:00:Z","depth":"2","parameterNumber":3,"parameterNumberName":"V-component_of_CURRENTS"},"data":[0,0,0,0,0,0,0,0,0,0,0,0,0,0,0,0,0,0,0,0,0,0,0,0,0,0,0,0,0,0,0,0,0,0,0,0,0,0,0,0,0,0,0,0,0,0,0,0,0,0,0,0,0,0,0,0,0,0,-0.0225,-0.0224,0,-0.0133,-0.0132,-0.0131,-0.0069,-0.0069,-0.0069,-0.0068,0.0052,0.0055,0.0058,0,0,0,0,0,0,0,0,0,0,0,0,0,-0.03,-0.0299,-0.0225,-0.0224,-0.0223,-0.0133,-0.0132,-0.0131,-0.0069,-0.0069,-0.0068,-0.0068,0.0051,0.0055,0.0058,0,0,0,0,0,0,0,0,0,0,0,0,0,-0.0243,-0.0299,-0.0225,-0.0182,-0.0177,-0.0134,-0.0132,-0.013,-0.0069,-0.0069,-0.0068,-0.0068,0.005,0.0054,0.0059,0.0076,0,0,0.0072,0.0074,0,0,0,0,0,0,0,0,-0.0246,-0.024,-0.0189,-0.0185,-0.018,-0.0113,-0.0114,-0.006,-0.0069,-0.0109,-0.0068,-0.0068,-0.0002,0.0007,0.0024,0.0081,0.0086,0.0072,0.0075,0.0077,0.0078,0,0,0,0,0,0,0,-0.025,-0.0243,-0.0187,-0.0188,-0.0182,-0.0152,-0.0143,-0.0104,-0.0058,-0.0106,-0.0101,-0.0093,0.0002,0.002,0.0028,0.0088,0.0072,0.0076,0.0079,0.008,0.0174,0.0174,0,0,0,0,0,0,-0.0267,-0.0247,-0.019,-0.0185,-0.0214,-0.0151,-0.0141,-0.0134,-0.0059,-0.0047,-0.0094,-0.0091,0.0012,0.0023,0.0032,0.0058,0.0077,0.0081,0.0083,0.0174,0.0174,0.0174,0,0,0,0,0,0,-0.0269,-0.0263,-0.0194,-0.0215,-0.0204,-0.0151,-0.0142,-0.0133,-0.0114,-0.005,-0.0038,-0.0086,0.0013,0.0026,0.0066,0.0063,0.0083,0.0087,0.0174,0.0174,0.0174,0.0109,0,0,0,0,0,0,-0.0271,-0.0264,-0.0267,-0.0216,-0.0203,-0.0178,-0.0143,-0.0131,-0.0111,-0.0106,-0.0039,-0.0028,0.0015,0.0059,0.007,0.0069,0.009,0.0174,0.0174,0.0174,0.0111,0.0106,0.0102,0,0,0,0,0,-0.0274,-0.0284,-0.0268,-0.0261,-0.0209,-0.0179,-0.017,-0.0129,-0.0111,-0.0109,-0.0061,-0.003,0.0065,0.0062,0.0075,0.0076,0.0174,0.0174,0.0174,0.0113,0.0107,0.0102,0,0,0,0,0,0,-0.0319,-0.0277,-0.0258,-0.0255,-0.0223,-0.0169,-0.0166,-0.0136,-0.0096,-0.0091,-0.0029,-0.0014,0.0017,0.0055,0.005,0.0102,0.0124,0.0126,0.0073,0.0068,0.0064,0.0053,0.0094,0,0,0,0,0,-0.0331,-0.0327,-0.0281,-0.028,-0.0268,-0.0218,-0.0202,-0.0173,-0.0131,-0.0113,-0.0066,-0.0016,0.0026,0.0053,0.0092,0.0123,0.0168,0.0132,0.0127,0.0123,0.0123,0.0188,0.019,0.0173,0.0173,0.0173,0,0,-0.0348,-0.0325,-0.0323,-0.0289,-0.0262,-0.0251,-0.0207,-0.0189,-0.0174,-0.0106,-0.0078,-0.0033,0.0029,0.0062,0.008,0.0095,0.0151,0.0123,0.0119,0.0121,0.0188,0.019,0.0192,0.0173,0.0173,0.0173,0,0,-0.0387,-0.0361,-0.0373,-0.0351,-0.0318,-0.0282,-0.0281,-0.0231,-0.0205,-0.0172,-0.012,-0.0075,-0.0014,0.0036,0.0068,0.0065,0.012,0.0072,0.0049,0.0112,0.0114,0.0116,0.0169,0.0177,0.0076,0.0076,0.0076,0,-0.041,-0.0414,-0.0373,-0.0378,-0.0363,-0.0302,-0.0307,-0.0271,-0.0214,-0.0191,-0.0175,-0.0073,-0.0024,0.0033,0.0031,0.0055,0.0095,0.0062,0.0106,0.0109,0.0113,0.0167,0.0176,0.0073,0.0073,0.0073,0.0073,0,-0.0456,-0.0456,-0.0462,-0.0444,-0.0422,-0.0418,-0.0363,-0.0339,-0.0298,-0.0254,-0.0198,-0.0126,-0.0062,-0.0041,-0.0004,0.0045,0.0065,0.0087,0.0117,0.0111,0.0168,0.0179,0.0068,0.0069,0.007,0.0071,0,0,-0.0513,-0.0499,-0.05,-0.0502,-0.0456,-0.0444,-0.0418,-0.0373,-0.0352,-0.029,-0.0253,-0.0175,-0.0129,-0.009,-0.0032,0.0025,0.0083,0.006,0.0065,0.0108,0.0216,0.0238,0.0252,0.0111,0.0113,0.0114,0.0243,0,-0.056,-0.0592,-0.056,-0.0573,-0.0581,-0.0516,-0.0495,-0.0443,-0.0387,-0.0336,-0.0246,-0.0194,-0.0148,-0.0118,-0.0053,0.0051,0.0109,0.0045,0.022,0.0225,0.0242,0.0265,0.0238,0.0351,0.0254,0.0256,0.0258,0,-0.0613,-0.0626,-0.0656,-0.0637,-0.0633,-0.0626,-0.0574,-0.0547,-0.0455,-0.041,-0.0333,-0.0259,-0.0161,-0.0126,0.0049,0.0005,0.01,0.018,0.0188,0.0239,0.0268,0.0345,0.0375,0.0277,0.0275,0.0274,0.0272,0,-0.0677,-0.0687,-0.0713,-0.0708,-0.0679,-0.0674,-0.065,-0.0575,-0.0547,-0.0455,-0.0421,-0.0293,-0.0219,-0.009,0.0077,0.0064,0.0273,0.028,0.039,0.0393,0.0421,0.0423,0.04,0.04,0.04,0.0399,0.0399,0,-0.0736,-0.0755,-0.075,-0.0766,-0.079,-0.0741,-0.0738,-0.0695,-0.0619,-0.0576,-0.0469,-0.0394,-0.0206,-0.0061,0.0074,0.0272,0.0276,0.0395,0.0433,0.0397,0.0395,0.037,0.0364,0.0404,0.0403,0.0402,0.0402,0,-0.0798,-0.0795,-0.0827,-0.0822,-0.0825,-0.0841,-0.0809,-0.0797,-0.0723,-0.0661,-0.0634,-0.0454,-0.0255,-0.0067,0.0171,0.0275,0.0453,0.052,0.0459,0.0488,0.0528,0.0517,0.0651,0.0653,0.0655,0.0656,0.0657,0,-0.0831,-0.0857,-0.0883,-0.0908,-0.091,-0.0923,-0.0927,-0.0863,-0.0836,-0.0684,-0.0653,-0.0449,-0.0275,0.0069,0.0295,0.0538,0.0529,0.0629,0.06,0.0532,0.0556,0.0543,0.0531,0.0613,0.0614,0.0614,0.0615,0,-0.089,-0.0899,-0.0928,-0.0985,-0.1009,-0.1027,-0.1021,-0.1009,-0.0906,-0.0819,-0.0644,-0.049,-0.015,0.0141,0.0433,0.0559,0.0583,0.0648,0.0622,0.0543,0.0504,0.0525,0.0513,0.062,0.0619,0.0619,0.0619,0.0619,-0.0927,-0.0966,-0.1005,-0.1053,-0.1088,-0.1106,-0.1102,-0.1055,-0.098,-0.0808,-0.0654,-0.0388,-0.012,0.0323,0.0523,0.0687,0.0682,0.0708,0.0703,0.0699,0.0661,0.0626,0.0757,0.0758,0.0758,0.0758,0.0758,0,-0.0966,-0.1008,-0.1065,-0.1118,-0.1158,-0.1157,-0.1141,-0.1088,-0.0977,-0.0798,-0.0596,-0.0255,0.0062,0.0325,0.0606,0.0766,0.0737,0.0769,0.0706,0.07,0.0695,0.0653,0.075,0.0751,0.0751,0.0752,0,0,-0.0988,-0.105,-0.1079,-0.1156,-0.119,-0.1199,-0.1176,-0.1069,-0.0932,-0.0705,-0.0499,-0.0248,0.0082,0.028,0.0486,0.0627,0.0605,0.0623,0.0611,0.0504,0.0497,0.0644,0.0573,0,0,0,0,0]}],[{"header":{"parameterUnit":"m.s-1","parameterCategory":2,"la1":30.2991,"la2":30.254,"lo1":-89.0895,"lo2":-89.0444,"dy":0.0017,"dx":0.0017,"nx":28,"ny":28,"refTime":"2024-06-05T03:00:00:Z","depth":"4","parameterNumber":2,"parameterNumberName":"U-component_of_CURRENTS"},"data":[0,0,0,0,0,0,0,0,0,0,0,0,0,0,0,0,0,0,0,0,0,0,0,0,0,0,0,0,0,0,0,0,0,0,0,0,0,0,0,0,0,0,0,0,0,0,0,0,0,0,0,0,0,0,0,0,0,0,-0.1681,-0.1682,0,-0.1777,-0.1778,-0.1778,-0.1829,-0.183,-0.183,-0.183,-0.1909,-0.1911,-0.1913,0,0,0,0,0,0,0,0,0,0,0,0,0,-0.1543,-0.1545,-0.168,-0.1682,-0.1683,-0.1776,-0.1778,-0.1779,-0.1829,-0.183,-0.183,-0.183,-0.1909,-0.1911,-0.1913,0,0,0,0,0,0,0,0,0,0,0,0,0,-0.1615,-0.1545,-0.168,-0.1721,-0.1726,-0.1776,-0.1778,-0.1779,-0.1829,-0.183,-0.183,-0.1831,-0.1908,-0.1911,-0.1913,-0.1921,0,0,-0.1922,-0.1923,0,0,0,0,0,0,0,0,-0.1611,-0.1619,-0.1714,-0.1719,-0.1724,-0.1794,-0.1758,-0.1826,-0.1829,-0.1788,-0.183,-0.1831,-0.187,-0.1876,-0.189,-0.1925,-0.1928,-0.1922,-0.1924,-0.1925,-0.1925,0,0,0,0,0,0,0,-0.1606,-0.1616,-0.1716,-0.1716,-0.1722,-0.1736,-0.1746,-0.1771,-0.1823,-0.1791,-0.1796,-0.181,-0.1873,-0.1887,-0.1892,-0.1929,-0.1922,-0.1924,-0.1926,-0.1927,-0.2045,-0.2046,0,0,0,0,0,0,-0.1598,-0.1611,-0.1713,-0.1719,-0.167,-0.1738,-0.175,-0.1769,-0.1823,-0.1833,-0.181,-0.1812,-0.1882,-0.1889,-0.1895,-0.1978,-0.1925,-0.1927,-0.1929,-0.2044,-0.2045,-0.2047,0,0,0,0,0,0,-0.1595,-0.1606,-0.1709,-0.1669,-0.1683,-0.174,-0.1761,-0.1771,-0.1816,-0.1838,-0.1847,-0.1849,-0.1883,-0.1891,-0.1947,-0.1979,-0.1928,-0.1931,-0.2042,-0.2044,-0.2046,-0.2099,0,0,0,0,0,0,-0.159,-0.1605,-0.163,-0.1668,-0.1685,-0.1762,-0.1761,-0.1772,-0.1824,-0.1829,-0.1874,-0.188,-0.1884,-0.1943,-0.1949,-0.1982,-0.1933,-0.204,-0.2043,-0.2045,-0.2096,-0.2103,-0.2109,0,0,0,0,0,-0.1585,-0.1615,-0.163,-0.1644,-0.1713,-0.1763,-0.1774,-0.1813,-0.1825,-0.1854,-0.1885,-0.1881,-0.1965,-0.1947,-0.1954,-0.1988,-0.2039,-0.2042,-0.2045,-0.2092,-0.2101,-0.2109,0,0,0,0,0,0,-0.157,-0.1624,-0.1642,-0.1688,-0.1733,-0.1773,-0.1809,-0.1831,-0.1879,-0.1892,-0.1904,-0.1913,-0.1972,-0.1974,-0.1953,-0.203,-0.1999,-0.2004,-0.2033,-0.2041,-0.2048,-0.2037,-0.1935,0,0,0,0,0,-0.1577,-0.1616,-0.1664,-0.1705,-0.1729,-0.1774,-0.1804,-0.1833,-0.1873,-0.1897,-0.1928,-0.1958,-0.1987,-0.201,-0.2036,-0.2082,-0.2054,-0.2107,-0.2114,-0.2119,-0.2116,-0.2112,-0.2117,-0.2058,-0.2058,-0.2058,0,0,-0.1582,-0.1619,-0.1642,-0.1705,-0.1743,-0.1789,-0.1794,-0.1853,-0.1895,-0.1896,-0.1969,-0.1989,-0.2005,-0.2056,-0.2082,-0.2066,-0.2119,-0.2124,-0.2129,-0.2122,-0.2116,-0.2121,-0.2126,-0.206,-0.206,-0.206,0,0,-0.1608,-0.1646,-0.1688,-0.1728,-0.1795,-0.1821,-0.1845,-0.1905,-0.1939,-0.2003,-0.2012,-0.205,-0.2105,-0.2117,-0.2129,-0.2189,-0.2156,-0.2204,-0.2233,-0.2229,-0.2234,-0.2237,-0.2193,-0.2192,-0.2207,-0.2208,-0.2208,0,-0.1614,-0.1668,-0.1708,-0.1758,-0.1793,-0.1839,-0.1886,-0.1928,-0.2,-0.2024,-0.2036,-0.2109,-0.2129,-0.217,-0.2194,-0.2204,-0.2183,-0.22,-0.2237,-0.224,-0.2242,-0.2196,-0.2195,-0.221,-0.221,-0.221,-0.221,0,-0.1663,-0.1716,-0.1745,-0.1818,-0.1862,-0.1912,-0.1967,-0.2019,-0.206,-0.2092,-0.2155,-0.2181,-0.2216,-0.2235,-0.2237,-0.2272,-0.2243,-0.2245,-0.2211,-0.2251,-0.22,-0.2198,-0.2215,-0.2214,-0.2213,-0.2212,0,0,-0.1644,-0.1756,-0.1769,-0.1808,-0.1896,-0.1932,-0.2005,-0.2068,-0.2107,-0.2173,-0.2211,-0.227,-0.2278,-0.229,-0.2299,-0.2303,-0.2304,-0.2289,-0.2288,-0.2236,-0.2268,-0.2116,-0.2098,-0.2316,-0.2317,-0.2317,-0.2219,0,-0.1669,-0.1759,-0.1812,-0.1893,-0.1936,-0.1997,-0.2053,-0.2117,-0.2167,-0.2215,-0.2245,-0.2289,-0.2301,-0.2319,-0.2329,-0.2314,-0.2303,-0.2329,-0.2245,-0.2241,-0.2094,-0.2092,-0.2318,-0.2217,-0.2216,-0.2215,-0.2215,0,-0.1687,-0.1746,-0.1829,-0.1919,-0.1944,-0.2,-0.2079,-0.2138,-0.2209,-0.2246,-0.2291,-0.2314,-0.2341,-0.2342,-0.2325,-0.2343,-0.2311,-0.229,-0.2286,-0.2121,-0.2084,-0.2174,-0.2209,-0.221,-0.221,-0.2211,-0.2211,0,-0.1631,-0.1748,-0.1812,-0.1847,-0.196,-0.2006,-0.2063,-0.2145,-0.2184,-0.2262,-0.2282,-0.2326,-0.2332,-0.2325,-0.2292,-0.2315,-0.2242,-0.2263,-0.2088,-0.2075,-0.222,-0.2217,-0.2238,-0.2238,-0.2239,-0.2239,-0.2239,0,-0.1609,-0.1661,-0.1795,-0.1826,-0.189,-0.1982,-0.2043,-0.2108,-0.2182,-0.2201,-0.2289,-0.2286,-0.2332,-0.2301,-0.228,-0.2151,-0.2228,-0.2073,-0.2039,-0.2243,-0.2244,-0.2216,-0.2215,-0.2235,-0.2236,-0.2237,-0.2237,0,-0.1526,-0.1622,-0.1694,-0.1823,-0.1865,-0.1906,-0.2017,-0.2047,-0.2139,-0.2161,-0.2184,-0.2245,-0.2196,-0.2199,-0.2158,-0.2097,-0.2019,-0.1955,-0.2135,-0.2117,-0.1857,-0.1861,-0.1747,-0.1741,-0.1735,-0.1731,-0.1727,0,-0.1487,-0.1522,-0.1666,-0.1702,-0.1764,-0.1844,-0.1886,-0.2004,-0.2026,-0.2106,-0.2088,-0.2089,-0.2102,-0.1899,-0.1944,-0.1855,-0.1845,-0.1795,-0.1863,-0.1828,-0.1807,-0.1819,-0.1829,-0.1719,-0.1717,-0.1716,-0.1715,0,-0.1398,-0.1466,-0.1525,-0.1601,-0.1662,-0.1717,-0.1787,-0.1787,-0.1894,-0.199,-0.1921,-0.1885,-0.1813,-0.1774,-0.1703,-0.166,-0.1831,-0.1741,-0.1753,-0.1816,-0.1793,-0.178,-0.1796,-0.1696,-0.1699,-0.1701,-0.1702,0,-0.1323,-0.1338,-0.1424,-0.1473,-0.1547,-0.1562,-0.1622,-0.1631,-0.1665,-0.1759,-0.1721,-0.1726,-0.1772,-0.1668,-0.1613,-0.1543,-0.1538,-0.1512,-0.1536,-0.1557,-0.1544,-0.1491,-0.1251,0,0,0,0,0,-0.1236,-0.1242,-0.1285,-0.1331,-0.1398,-0.1436,-0.1538,-0.16,-0.1697,-0.1591,-0.1651,-0.1576,-0.1491,-0.1508,-0.1393,-0.1542,-0.1556,-0.1407,-0.1543,-0.1595,-0.1616,-0.1622,0,0,0,0,0,0,-0.1178,-0.1216,-0.1237,-0.1202,-0.1199,-0.1251,-0.131,-0.1385,-0.1341,-0.144,-0.1392,-0.1468,-0.1401,-0.1497,-0.1346,-0.1351,-0.1405,-0.1423,-0.1418,-0.1583,-0.1602,-0.1619,-0.1633,0,0,0,0,0]},{"header":{"parameterUnit":"m.s-1","parameterCategory":2,"la1":30.2991,"la2":30.254,"lo1":-89.0895,"lo2":-89.0444,"dy":0.0017,"dx":0.0017,"nx":28,"ny":28,"refTime":"2024-06-05T03:00:00:Z","depth":"4","parameterNumber":3,"parameterNumberName":"V-component_of_CURRENTS"},"data":[0,0,0,0,0,0,0,0,0,0,0,0,0,0,0,0,0,0,0,0,0,0,0,0,0,0,0,0,0,0,0,0,0,0,0,0,0,0,0,0,0,0,0,0,0,0,0,0,0,0,0,0,0,0,0,0,0,0,-0.015,-0.015,0,-0.0078,-0.0077,-0.0076,-0.0032,-0.0032,-0.0032,-0.0032,0.0072,0.0075,0.0077,0,0,0,0,0,0,0,0,0,0,0,0,0,-0.0206,-0.0206,-0.015,-0.015,-0.0149,-0.0078,-0.0077,-0.0076,-0.0032,-0.0032,-0.0032,-0.0032,0.0071,0.0074,0.0077,0,0,0,0,0,0,0,0,0,0,0,0,0,-0.0162,-0.0205,-0.015,-0.012,-0.0116,-0.0078,-0.0077,-0.0075,-0.0032,-0.0032,-0.0032,-0.0032,0.007,0.0074,0.0078,0.01,0,0,0.009,0.0092,0,0,0,0,0,0,0,0,-0.0164,-0.0159,-0.0125,-0.0122,-0.0118,-0.0065,-0.0058,-0.0016,-0.0032,-0.0063,-0.0032,-0.0032,0.0028,0.0036,0.005,0.0105,0.011,0.0091,0.0093,0.0095,0.0096,0,0,0,0,0,0,0,-0.0167,-0.0162,-0.012,-0.0124,-0.012,-0.0094,-0.0088,-0.005,-0.0017,-0.006,-0.0057,-0.0051,0.003,0.0046,0.0053,0.0111,0.009,0.0094,0.0097,0.0098,0.0189,0.0189,0,0,0,0,0,0,-0.0182,-0.0165,-0.0123,-0.0118,-0.0143,-0.0093,-0.0086,-0.0081,-0.0018,-0.0009,-0.0051,-0.0049,0.0039,0.0048,0.0057,0.0082,0.0095,0.0099,0.0101,0.0189,0.0189,0.0189,0,0,0,0,0,0,-0.0183,-0.0178,-0.0125,-0.0141,-0.0133,-0.0093,-0.0087,-0.008,-0.0065,-0.0012,-0.0002,-0.0045,0.004,0.0051,0.0089,0.0086,0.01,0.0104,0.0189,0.0189,0.0189,0.0135,0,0,0,0,0,0,-0.0185,-0.0179,-0.0183,-0.0142,-0.0132,-0.011,-0.0087,-0.0078,-0.0063,-0.0059,-0.0004,0.0006,0.0041,0.0082,0.0093,0.0092,0.0107,0.0189,0.0189,0.0189,0.0136,0.0133,0.013,0,0,0,0,0,-0.0187,-0.0193,-0.0184,-0.0179,-0.0138,-0.0111,-0.0103,-0.0073,-0.0063,-0.0059,-0.002,0.0004,0.009,0.0086,0.0098,0.0098,0.0189,0.0189,0.0189,0.0138,0.0133,0.013,0,0,0,0,0,0,-0.0218,-0.0188,-0.0177,-0.0173,-0.0148,-0.0104,-0.0101,-0.0078,-0.0045,-0.0042,0.0008,0.0021,0.005,0.0083,0.0078,0.0124,0.0142,0.0145,0.0099,0.0095,0.0092,0.0079,0.011,0,0,0,0,0,-0.0228,-0.0226,-0.0191,-0.0189,-0.018,-0.0142,-0.0128,-0.0107,-0.0072,-0.0057,-0.0018,0.0024,0.006,0.0084,0.0118,0.0149,0.0182,0.0156,0.0153,0.015,0.0147,0.0197,0.0197,0.0189,0.0189,0.0189,0,0,-0.0241,-0.0224,-0.0223,-0.0196,-0.0176,-0.0165,-0.0133,-0.0118,-0.0106,-0.005,-0.0026,0.0011,0.0064,0.0094,0.0111,0.0123,0.0168,0.015,0.0146,0.0146,0.0197,0.0198,0.0198,0.0189,0.0189,0.0189,0,0,-0.0267,-0.0251,-0.0259,-0.0241,-0.0216,-0.0188,-0.0187,-0.0147,-0.0127,-0.0097,-0.0058,-0.002,0.0035,0.0075,0.0102,0.0103,0.0144,0.011,0.009,0.0137,0.0138,0.014,0.0175,0.018,0.0114,0.0114,0.0114,0,-0.0285,-0.0287,-0.0257,-0.0259,-0.0249,-0.0203,-0.0206,-0.0177,-0.0129,-0.0114,-0.0099,-0.0016,0.0027,0.0072,0.0072,0.0095,0.0124,0.0099,0.0132,0.0134,0.0137,0.0173,0.0179,0.0111,0.0111,0.0112,0.0112,0,-0.0313,-0.0316,-0.032,-0.0306,-0.029,-0.0285,-0.0243,-0.0226,-0.0196,-0.0163,-0.012,-0.0057,-0.0008,0.0012,0.0045,0.0082,0.0096,0.0117,0.014,0.0134,0.0173,0.018,0.0107,0.0108,0.0109,0.011,0,0,-0.0352,-0.0344,-0.0346,-0.0352,-0.0316,-0.0307,-0.0288,-0.0256,-0.0246,-0.0193,-0.0171,-0.0102,-0.0068,-0.0035,0.0013,0.006,0.0101,0.0091,0.0095,0.012,0.0198,0.0174,0.018,0.0127,0.0128,0.0129,0.0216,0,-0.0386,-0.0411,-0.0388,-0.0402,-0.041,-0.0364,-0.0351,-0.0314,-0.0273,-0.0239,-0.0167,-0.0128,-0.0085,-0.0062,-0.0009,0.0075,0.0119,0.0075,0.0205,0.0209,0.0184,0.0188,0.0133,0.0222,0.0224,0.0225,0.0226,0,-0.042,-0.0433,-0.0462,-0.0457,-0.0455,-0.0455,-0.0428,-0.0408,-0.0344,-0.0311,-0.0254,-0.0194,-0.0116,-0.008,0.0056,0.0025,0.0102,0.0168,0.0174,0.0176,0.0199,0.0233,0.024,0.0239,0.0238,0.0237,0.0236,0,-0.0468,-0.0481,-0.051,-0.0508,-0.0494,-0.05,-0.0488,-0.0439,-0.0421,-0.0358,-0.0334,-0.0235,-0.0179,-0.0072,0.0066,0.0062,0.0218,0.0232,0.0283,0.0283,0.0303,0.0301,0.0325,0.0325,0.0325,0.0325,0.0324,0,-0.0506,-0.053,-0.0543,-0.0558,-0.0592,-0.0558,-0.0572,-0.0544,-0.0494,-0.0467,-0.0381,-0.0325,-0.0173,-0.006,0.0055,0.019,0.0212,0.0278,0.0305,0.0277,0.0271,0.0308,0.0305,0.0328,0.0327,0.0326,0.0326,0,-0.0546,-0.0555,-0.0593,-0.0607,-0.0618,-0.0643,-0.0637,-0.0634,-0.0586,-0.0545,-0.0525,-0.0386,-0.0237,-0.0086,0.0104,0.0171,0.0305,0.035,0.0302,0.0325,0.0338,0.0331,0.0403,0.0403,0.0403,0.0403,0.0403,0,-0.0565,-0.0592,-0.0643,-0.0674,-0.0687,-0.0716,-0.0728,-0.0691,-0.0673,-0.0569,-0.0544,-0.0398,-0.0292,-0.0042,0.0108,0.0306,0.0335,0.0381,0.0361,0.0328,0.0347,0.034,0.0334,0.0403,0.0403,0.0403,0.0403,0,-0.0601,-0.0626,-0.0661,-0.0732,-0.0768,-0.0794,-0.0804,-0.0792,-0.0723,-0.0687,-0.0538,-0.0395,-0.0226,-0.0033,0.0117,0.0263,0.0334,0.0381,0.0382,0.0363,0.0329,0.0346,0.0339,0.0402,0.0402,0.0402,0.0402,0,-0.0627,-0.0667,-0.0721,-0.0775,-0.0828,-0.0845,-0.0845,-0.0794,-0.076,-0.0632,-0.0577,-0.038,-0.0257,-0.0053,0.0094,0.022,0.0246,0.0265,0.0272,0.0274,0.0204,0.0139,0.0177,0,0,0,0,0,-0.0644,-0.0692,-0.0754,-0.0812,-0.0862,-0.0883,-0.0878,-0.0855,-0.0789,-0.069,-0.0627,-0.0457,-0.0215,-0.0099,0.0026,0.0067,0.0243,0.021,0.0261,0.0401,0.0401,0.0338,0,0,0,0,0,0,-0.0658,-0.0726,-0.0758,-0.0826,-0.0864,-0.0905,-0.0897,-0.085,-0.0777,-0.0691,-0.055,-0.0462,-0.0221,-0.0287,0.0019,0.0058,0.0098,0.0331,0.0333,0.04,0.0401,0.0401,0.0336,0,0,0,0,0]}]]